Back to catalog

ARIANE 2 DEB

AliveGTO
NORAD 27039·DEBRIS·🇫🇷 France

Launched Jan 27, 1989 from Guiana Space Centre

Loading…

TLE

AgingSource: Space-Track

Epoch: Sep 14, 2026, 09:33 UTC

1 27039U 89006U   26257.39831190 -.00000048  00000-0  23451-3 0  9991
2 27039   7.9224 119.7762 7159903 347.8390 290.0690  2.26242957208171

Track ARIANE 2 DEB in real time with AllMySat

Download on the App Store